CZ-4 DEB, 26336

Orbit data source: Space-Track

CZ-4 DEB, 26336 is space debris in SSO originally from a launch on Thu, 14 Oct 1999 UTC launched from the Taiyaun Space Center, China (TSC). Debris objects in space refer to the collection of defunct objects orbiting the Earth. Examples of debris include non-operational satellites, rocket bodies, and fragments generated from explosions, collisions, or faulty payload assembly.

Loading next visibility...
Identifier
26336, 1999-057HV
Orbit
SSO
Country
Flag of CNCN / PRC
Related business
Manufacturer
Unknown
Mission
Spacecraft
Bus & Motor
Unknown
Mass
Unknown
Launch date (UTC)
1999-10-14 (26 years ago)
Launch vehicle
Unknown
Launch site
Taiyaun Space Center, China (TSC)
Object type
Payload
Rocket body
Debris
Shape & HBR
Unknown shape, 0.1 m
Radar Cross Section
Small (<0.1 m²)

Expand to show TLE details & history
Last TLE update: 14 hours ago

TLE from 14 hours ago
0 CZ-4 DEB
1 26336U 99057HV  25297.40639609  .00008332  00000-0  12894-2 0  9994
2 26336  98.3734 348.9052 0051339 213.4558 146.3402 14.72608918351012
Epoch: 2025-10-24T09:45Z
TLE epoch observation values (Epoch: 2025-10-24T09:45:12.622Z)
Latitude
-0.00001°
Longitude
169.55086°
Altitude
685.856 km
Speed
7.497 km/s
True Right ascension
23h 15m 37s
True Declination
0° 00' 00"
Sunlit
Object was in full shadow at epoch
Visualization orbit readout
Latitude
Unknown
Longitude
Unknown
Altitude
Unknown
Speed
Unknown
Apparent Right ascension
Unknown
Apparent Declination
Unknown
Sunlit
N/A
Visualization observer readout
Local Sidereal Time
19:02:22
Azimuth
Unknown
Elevation
Unknown
Doppler factor
Unknown
Orbital elements
Apogee altitude
685.905 km
Perigee altitude
613.743 km
Semi-major axis
7,027.961 km
Eccentricity
0.00513
Inclination
98.3734°
RAAN
348.9052°
Arg. of periapsis
213.4558°
True anomaly
146.66454°
Mean anomaly
146.3402°
Eccentric anomaly
146.50254°
Mean motion
3.68383 °/min
Orbital period
97.72 mins
BSTAR
0.0012894
Loading maneuver chart data...
Computing Atmospheric mass density...

Documentation

Showing up to 5 results
|